Provincetown, Massachusetts, United States (02657)
Lat: 42.06N, Lon: 70.18W
Wx Zone: MAZ022
Local Info
Past Weather Observations for Today

NOTE: This archive is for the closest National Weather Service station to Provincetown. Information may differ from the station used for current weather conditions.

Click here for Long-term Archive

Time Weather Temperature Dewpoint Humidity Pressure Winds Precip Visibility
22:35
Overcast
50°F / 10°C -2°F / -19°C 11% 29.95 in
(1014 mb)
NE 18.4 mph
(NE 30 kph)
- 10SM
22:15
Overcast
50°F / 10°C -2°F / -19°C 11% 29.98 in
(1015 mb)
NE 13.8 mph
(NE 22 kph)
- 10SM
21:55
Overcast
50°F / 10°C -2°F / -19°C 11% 29.98 in
(1015 mb)
NE 15 mph
(NE 24 kph)
- 10SM
21:35
Mostly Cloudy
50°F / 10°C -2°F / -19°C 11% 29.98 in
(1015 mb)
NE 17.3 mph
(NE 28 kph)
- 10SM
21:15
Partly Cloudy
50°F / 10°C -2°F / -19°C 11% 29.98 in
(1015 mb)
NE 15 mph
(NE 24 kph)
- 10SM
20:55
Clear
50°F / 10°C -2°F / -19°C 11% 29.98 in
(1015 mb)
NE 19.6 mph
(NE 32 kph)
- 10SM
20:35
Partly Cloudy
50°F / 10°C -2°F / -19°C 11% 29.98 in
(1015 mb)
NE 17.3 mph
(NE 28 kph)
- 10SM
20:15
Overcast
50°F / 10°C -2°F / -19°C 11% 29.98 in
(1015 mb)
NE 15 mph
(NE 24 kph)
- 10SM
19:55
Overcast
50°F / 10°C -2°F / -19°C 11% 30.01 in
(1016 mb)
NE 15 mph
(NE 24 kph)
- 10SM
19:35
Overcast
50°F / 10°C -2°F / -19°C 11% 30.01 in
(1016 mb)
NE 16.1 mph
(NE 26 kph)
- 10SM
19:15
Mostly Cloudy
50°F / 10°C -2°F / -19°C 11% 30.01 in
(1016 mb)
ENE 13.8 mph
(ENE 22 kph)
- 10SM
18:35
Mostly Cloudy
50°F / 10°C -2°F / -19°C 11% 30.01 in
(1016 mb)
NE 15 mph
(NE 24 kph)
- 10SM
18:15
Overcast
50°F / 10°C -2°F / -19°C 11% 30.01 in
(1016 mb)
ENE 13.8 mph
(ENE 22 kph)
- 10SM
17:55
Overcast
50°F / 10°C -2°F / -19°C 11% 30.01 in
(1016 mb)
ENE 16.1 mph
(ENE 26 kph)
- 10SM
17:35
Overcast
50°F / 10°C -2°F / -19°C 11% 30.01 in
(1016 mb)
ENE 12.7 mph
(ENE 20 kph)
- 10SM
17:15
Overcast
50°F / 10°C -2°F / -19°C 11% 30.01 in
(1016 mb)
NE 13.8 mph
(NE 22 kph)
- 10SM
16:55
Overcast
50°F / 10°C -2°F / -19°C 11% 30.01 in
(1016 mb)
ENE 12.7 mph
(ENE 20 kph)
- 10SM
16:35
Partly Cloudy
50°F / 10°C -2°F / -19°C 11% 30.01 in
(1016 mb)
ENE 13.8 mph
(ENE 22 kph)
- 10SM
16:15
Partly Cloudy
50°F / 10°C -2°F / -19°C 11% 30.01 in
(1016 mb)
ENE 11.5 mph
(ENE 19 kph)
- 10SM
15:55
Clear
50°F / 10°C -2°F / -19°C 11% 30.01 in
(1016 mb)
ENE 10.4 mph
(ENE 17 kph)
- 10SM
15:35
Mostly Cloudy
52°F / 11°C -2°F / -19°C 10% 29.98 in
(1015 mb)
ENE 12.7 mph
(ENE 20 kph)
- 10SM
15:15
Mostly Cloudy
52°F / 11°C -2°F / -19°C 10% 30.01 in
(1016 mb)
ENE 13.8 mph
(ENE 22 kph)
- 10SM
14:55
Mostly Cloudy
52°F / 11°C °F / -18°C 11% 30.01 in
(1016 mb)
E 12.7 mph
(E 20 kph)
- 10SM
14:35
Overcast
52°F / 11°C °F / -18°C 11% 30.01 in
(1016 mb)
ENE 10.4 mph
(ENE 17 kph)
- 10SM
14:15
Overcast
52°F / 11°C °F / -18°C 11% 29.98 in
(1015 mb)
ENE 13.8 mph
(ENE 22 kph)
- 10SM
13:55
Mostly Cloudy
52°F / 11°C °F / -18°C 11% 30.01 in
(1016 mb)
ENE 12.7 mph
(ENE 20 kph)
- 10SM
13:35
Mostly Cloudy
54°F / 12°C °F / -18°C 11% 30.01 in
(1016 mb)
E 15 mph
(E 24 kph)
- 10SM
13:15
Mostly Cloudy
54°F / 12°C °F / -18°C 11% 30.01 in
(1016 mb)
ENE 15 mph
(ENE 24 kph)
- 10SM
12:55
Mostly Cloudy
54°F / 12°C °F / -18°C 11% 30.01 in
(1016 mb)
ENE 12.7 mph
(ENE 20 kph)
- 10SM
12:35
Overcast
54°F / 12°C 1°F / -17°C 12% 30.01 in
(1016 mb)
ENE 13.8 mph
(ENE 22 kph)
- 10SM
12:15
Mostly Cloudy
55°F / 13°C 1°F / -17°C 11% 30.01 in
(1016 mb)
ENE 12.7 mph
(ENE 20 kph)
- 10SM
11:55
Partly Cloudy
55°F / 13°C 1°F / -17°C 11% 30.01 in
(1016 mb)
ENE 11.5 mph
(ENE 19 kph)
- 10SM
11:35
Mostly Cloudy
55°F / 13°C 1°F / -17°C 11% 30.01 in
(1016 mb)
ENE 12.7 mph
(ENE 20 kph)
- 10SM
11:15
Overcast
55°F / 13°C 1°F / -17°C 11% 30.01 in
(1016 mb)
ENE 12.7 mph
(ENE 20 kph)
- 10SM
10:55
Overcast
54°F / 12°C °F / -18°C 11% 30.04 in
(1017 mb)
NE 11.5 mph
(NE 19 kph)
- 10SM
10:35
Overcast
54°F / 12°C °F / -18°C 11% 30.04 in
(1017 mb)
ENE 11.5 mph
(ENE 19 kph)
- 10SM
10:15
Overcast
55°F / 13°C 1°F / -17°C 11% 30.04 in
(1017 mb)
ENE 11.5 mph
(ENE 19 kph)
- 10SM
09:55
Overcast
54°F / 12°C 1°F / -17°C 12% 30.04 in
(1017 mb)
ENE 10.4 mph
(ENE 17 kph)
- 10SM
09:35
Mostly Cloudy
54°F / 12°C °F / -18°C 11% 30.04 in
(1017 mb)
ENE 13.8 mph
(ENE 22 kph)
- 10SM
09:15
Clear
55°F / 13°C 1°F / -17°C 11% 30.04 in
(1017 mb)
ENE 13.8 mph
(ENE 22 kph)
- 10SM
08:55
Clear
55°F / 13°C 1°F / -17°C 11% 30.04 in
(1017 mb)
ENE 12.7 mph
(ENE 20 kph)
- 10SM
08:35
Clear
54°F / 12°C °F / -18°C 11% 30.04 in
(1017 mb)
ENE 12.7 mph
(ENE 20 kph)
- 10SM
08:15
Clear
54°F / 12°C °F / -18°C 11% 30.04 in
(1017 mb)
E 11.5 mph
(E 19 kph)
- 10SM
07:55
Clear
52°F / 11°C °F / -18°C 11% 30.04 in
(1017 mb)
ENE 10.4 mph
(ENE 17 kph)
- 10SM
07:35
Clear
52°F / 11°C -2°F / -19°C 10% 30.04 in
(1017 mb)
ENE 11.5 mph
(ENE 19 kph)
- 10SM
07:15
Partly Cloudy
48°F / 9°C -4°F / -20°C 11% 30.04 in
(1017 mb)
ENE 11.5 mph
(ENE 19 kph)
- 10SM
06:55
Overcast
48°F / 9°C -4°F / -20°C 11% 30.04 in
(1017 mb)
NE 10.4 mph
(NE 17 kph)
- 10SM
06:35
Mostly Cloudy
48°F / 9°C -4°F / -20°C 11% 30.04 in
(1017 mb)
NE 10.4 mph
(NE 17 kph)
- 10SM
06:15
Partly Cloudy
48°F / 9°C -4°F / -20°C 11% 30.04 in
(1017 mb)
NE 9.2 mph
(NE 15 kph)
- 10SM
05:55
Overcast
48°F / 9°C -2°F / -19°C 12% 30.01 in
(1016 mb)
NE 10.4 mph
(NE 17 kph)
- 10SM
05:35
Overcast
48°F / 9°C -2°F / -19°C 12% 30.01 in
(1016 mb)
NE 12.7 mph
(NE 20 kph)
- 10SM
05:15
Overcast
48°F / 9°C -2°F / -19°C 12% 30.01 in
(1016 mb)
NE 11.5 mph
(NE 19 kph)
- 10SM
04:55
Overcast
48°F / 9°C -2°F / -19°C 12% 30.01 in
(1016 mb)
ENE 11.5 mph
(ENE 19 kph)
- 10SM
04:35
Overcast
48°F / 9°C -2°F / -19°C 12% 30.01 in
(1016 mb)
NE 11.5 mph
(NE 19 kph)
- 10SM
04:15
Overcast
48°F / 9°C -2°F / -19°C 12% 30.01 in
(1016 mb)
NE 11.5 mph
(NE 19 kph)
- 10SM
03:55
Overcast
48°F / 9°C -2°F / -19°C 12% 30.01 in
(1016 mb)
NE 10.4 mph
(NE 17 kph)
- 10SM
03:35
Overcast
48°F / 9°C -2°F / -19°C 12% 30.01 in
(1016 mb)
NE 11.5 mph
(NE 19 kph)
- 10SM
03:15
Overcast
48°F / 9°C -2°F / -19°C 12% 30.01 in
(1016 mb)
NE 11.5 mph
(NE 19 kph)
- 10SM
02:55
Overcast
50°F / 10°C -2°F / -19°C 11% 30.01 in
(1016 mb)
NE 12.7 mph
(NE 20 kph)
- 10SM
02:35
Overcast
50°F / 10°C -2°F / -19°C 11% 30.01 in
(1016 mb)
NE 11.5 mph
(NE 19 kph)
- 10SM
02:15
Overcast
50°F / 10°C -2°F / -19°C 11% 30.01 in
(1016 mb)
NE 11.5 mph
(NE 19 kph)
- 10SM
01:55
Overcast
50°F / 10°C -2°F / -19°C 11% 30.01 in
(1016 mb)
NE 11.5 mph
(NE 19 kph)
- 10SM
01:35
Overcast
50°F / 10°C -2°F / -19°C 11% 30.01 in
(1016 mb)
NE 12.7 mph
(NE 20 kph)
- 10SM
01:15
Overcast
50°F / 10°C -2°F / -19°C 11% 30.01 in
(1016 mb)
NE 11.5 mph
(NE 19 kph)
- 10SM
00:55
Overcast
52°F / 11°C -2°F / -19°C 10% 30.01 in
(1016 mb)
NE 10.4 mph
(NE 17 kph)
- 10SM
00:35
Overcast
52°F / 11°C -2°F / -19°C 10% 30.01 in
(1016 mb)
NE 11.5 mph
(NE 19 kph)
- 10SM
00:15
Overcast
52°F / 11°C -2°F / -19°C 10% 30.01 in
(1016 mb)
NE 9.2 mph
(NE 15 kph)
- 10SM
Time Weather Temperature Dewpoint Humidity Pressure Winds Precip Visibility


Weather for websites

WeatherForYou.com, LLC is not responsible for any damages or problems caused by this service. Current weather conditions are obtained from the closest station including government and personal stations which may have varying degrees of accuracy. Weather forecasts are derived from the NOAA NDFD. Like all things, this site belongs to Jesus Christ... He just trusts me to maintain it. If you have any questions or comments email webmaster@weatherforyou.com

Copyright © 2014, WeatherForYou.com LLC. All rights reserved.